sat.trackr.live / text

‹ back to catalog

NEONSAT-1A

NORAD 67614 · 2026-019A

PAYLOAD ACTIVE UNKNOWN

§ Identity

Operator
Country
SKOR
Launch date
2026-01-30
Launch site
RLLB
Launch vehicle
Mass (kg)
RCS (m²)

External: N2YO · Heavens-Above · Gunter

§ Orbital elements

Epoch: 2026-05-25T02:00:49.735872Z

Period
95.47 min
Inclination
97.4236°
Eccentricity
0.0011792
Mean motion
15.08274327 rev/d
Perigee alt
533.3 km
Apogee alt
549.6 km
Semi-major
6,919.6 km
B*
2.0022e-4
RAAN
266.0213°
Arg perigee
271.5560°
Mean anomaly
88.4318°
Rev number
1,733

§ Raw data

NEONSAT-1A1 67614U 26019A   26145.08390898  .00003046  00000+0  20022-3 0  99962 67614  97.4236 266.0213 0011792 271.5560  88.4318 15.08274327 17338

JSON: /api/v1/satellites/67614 · /tle

For live sub-satellite position, see the globe view (requires WebGL).

§ Visibility from observer

Set your observer location to see the next 7 days of passes ≥ 10°. The values pass through the URL so the page stays shareable.

No JS? Fill the form by hand. The geolocation button needs JavaScript.